Time,TemperatureF,DewpointF,PressureIn,WindDirection,WindDirectionDegrees,WindSpeedMPH,WindSpeedGustMPH,Humidity,HourlyPrecipIn,Conditions,Clouds,dailyrainin,SoftwareType,DateUTC
2013-10-13 00:09:00,-999.0,-99.9,26.51,North,-999,-999.0,-999.0,-999,0.00,,,0.00,weatherlink.com 1.10,2013-10-13 04:09:00,
2013-10-13 00:25:00,-999.0,-99.9,26.51,North,-999,-999.0,-999.0,-999,0.00,,,0.00,weatherlink.com 1.10,2013-10-13 04:25:00,
2013-10-13 00:40:00,-999.0,-99.9,26.51,North,-999,-999.0,-999.0,-999,0.00,,,0.00,weatherlink.com 1.10,2013-10-13 04:40:00,
2013-10-13 00:55:00,-999.0,-99.9,26.51,North,-999,-999.0,-999.0,-999,0.00,,,0.00,weatherlink.com 1.10,2013-10-13 04:55:00,
2013-10-13 01:10:00,-999.0,-99.9,26.51,North,-999,-999.0,-999.0,-999,0.00,,,0.00,weatherlink.com 1.10,2013-10-13 05:10:00,
2013-10-13 01:25:00,-999.0,-99.9,26.51,North,-999,-999.0,-999.0,-999,0.00,,,0.00,weatherlink.com 1.10,2013-10-13 05:25:00,
2013-10-13 01:40:00,-999.0,-99.9,26.52,North,-999,-999.0,-999.0,-999,0.00,,,0.00,weatherlink.com 1.10,2013-10-13 05:40:00,
2013-10-13 01:55:00,-999.0,-99.9,26.52,North,-999,-999.0,-999.0,-999,0.00,,,0.00,weatherlink.com 1.10,2013-10-13 05:55:00,
2013-10-13 02:10:00,-999.0,-99.9,26.52,North,-999,-999.0,-999.0,-999,0.00,,,0.00,weatherlink.com 1.10,2013-10-13 06:10:00,
2013-10-13 02:25:00,-999.0,-99.9,26.52,North,-999,-999.0,-999.0,-999,0.00,,,0.00,weatherlink.com 1.10,2013-10-13 06:25:00,
2013-10-13 02:40:00,-999.0,-99.9,26.52,North,-999,-999.0,-999.0,-999,0.00,,,0.00,weatherlink.com 1.10,2013-10-13 06:40:00,
2013-10-13 02:55:00,-999.0,-99.9,26.52,North,-999,-999.0,-999.0,-999,0.00,,,0.00,weatherlink.com 1.10,2013-10-13 06:55:00,
2013-10-13 03:10:00,-999.0,-99.9,26.52,North,-999,-999.0,-999.0,-999,0.00,,,0.00,weatherlink.com 1.10,2013-10-13 07:10:00,
2013-10-13 03:25:00,-999.0,-99.9,26.51,North,-999,-999.0,-999.0,-999,0.00,,,0.00,weatherlink.com 1.10,2013-10-13 07:25:00,
2013-10-13 03:40:00,-999.0,-99.9,26.51,North,-999,-999.0,-999.0,-999,0.00,,,0.00,weatherlink.com 1.10,2013-10-13 07:40:00,
2013-10-13 03:56:00,-999.0,-99.9,26.51,North,-999,-999.0,-999.0,-999,0.00,,,0.00,weatherlink.com 1.10,2013-10-13 07:56:00,
2013-10-13 04:11:00,-999.0,-99.9,26.51,North,-999,-999.0,-999.0,-999,0.00,,,0.00,weatherlink.com 1.10,2013-10-13 08:11:00,
2013-10-13 04:26:00,-999.0,-99.9,26.51,North,-999,-999.0,-999.0,-999,0.00,,,0.00,weatherlink.com 1.10,2013-10-13 08:26:00,
2013-10-13 04:41:00,-999.0,-99.9,26.51,North,-999,-999.0,-999.0,-999,0.00,,,0.00,weatherlink.com 1.10,2013-10-13 08:41:00,
2013-10-13 04:56:00,-999.0,-99.9,26.51,North,-999,-999.0,-999.0,-999,0.00,,,0.00,weatherlink.com 1.10,2013-10-13 08:56:00,
2013-10-13 05:11:00,-999.0,-99.9,26.51,North,-999,-999.0,-999.0,-999,0.00,,,0.00,weatherlink.com 1.10,2013-10-13 09:11:00,
2013-10-13 05:26:00,-999.0,-99.9,26.52,North,-999,-999.0,-999.0,-999,0.00,,,0.00,weatherlink.com 1.10,2013-10-13 09:26:00,
2013-10-13 05:41:00,-999.0,-99.9,26.52,North,-999,-999.0,-999.0,-999,0.00,,,0.00,weatherlink.com 1.10,2013-10-13 09:41:00,
2013-10-13 05:56:00,-999.0,-99.9,26.52,North,-999,-999.0,-999.0,-999,0.00,,,0.00,weatherlink.com 1.10,2013-10-13 09:56:00,
2013-10-13 06:11:00,-999.0,-99.9,26.53,North,-999,-999.0,-999.0,-999,0.00,,,0.00,weatherlink.com 1.10,2013-10-13 10:11:00,
2013-10-13 06:26:00,-999.0,-99.9,26.53,North,-999,-999.0,-999.0,-999,0.00,,,0.00,weatherlink.com 1.10,2013-10-13 10:26:00,
2013-10-13 06:41:00,-999.0,-99.9,26.53,North,-999,-999.0,-999.0,-999,0.00,,,0.00,weatherlink.com 1.10,2013-10-13 10:41:00,
2013-10-13 06:56:00,-999.0,-99.9,26.54,North,-999,-999.0,-999.0,-999,0.00,,,0.00,weatherlink.com 1.10,2013-10-13 10:56:00,
2013-10-13 07:12:00,-999.0,-99.9,26.54,North,-999,-999.0,-999.0,-999,0.00,,,0.00,weatherlink.com 1.10,2013-10-13 11:12:00,
2013-10-13 07:27:00,-999.0,-99.9,26.54,North,-999,-999.0,-999.0,-999,0.00,,,0.00,weatherlink.com 1.10,2013-10-13 11:27:00,
2013-10-13 07:42:00,-999.0,-99.9,26.54,North,-999,-999.0,-999.0,-999,0.00,,,0.00,weatherlink.com 1.10,2013-10-13 11:42:00,
2013-10-13 07:57:00,-999.0,-99.9,26.54,North,-999,-999.0,-999.0,-999,0.00,,,0.00,weatherlink.com 1.10,2013-10-13 11:57:00,
2013-10-13 08:12:00,-999.0,-99.9,26.55,North,-999,-999.0,-999.0,-999,0.00,,,0.00,weatherlink.com 1.10,2013-10-13 12:12:00,
2013-10-13 08:27:00,-999.0,-99.9,26.55,North,-999,-999.0,-999.0,-999,0.00,,,0.00,weatherlink.com 1.10,2013-10-13 12:27:00,
2013-10-13 08:42:00,56.9,55.0,26.55,NNE,22,2.0,7.0,92,0.00,,,0.00,weatherlink.com 1.10,2013-10-13 12:42:00,
2013-10-13 08:57:00,57.2,55.0,26.56,North,355,0.0,5.0,91,0.00,,,0.00,weatherlink.com 1.10,2013-10-13 12:57:00,
2013-10-13 09:12:00,57.8,55.0,26.57,North,360,0.0,6.0,90,0.00,,,0.00,weatherlink.com 1.10,2013-10-13 13:12:00,
2013-10-13 09:27:00,58.1,55.0,26.57,North,360,3.0,5.0,88,0.00,,,0.00,weatherlink.com 1.10,2013-10-13 13:27:00,
2013-10-13 09:42:00,58.6,55.0,26.57,North,360,2.0,4.0,87,0.00,,,0.00,weatherlink.com 1.10,2013-10-13 13:42:00,
2013-10-13 09:57:00,59.0,55.0,26.58,North,10,3.0,6.0,85,0.00,,,0.00,weatherlink.com 1.10,2013-10-13 13:57:00,
2013-10-13 10:12:00,59.5,55.0,26.58,North,11,5.0,6.0,84,0.00,,,0.00,weatherlink.com 1.10,2013-10-13 14:12:00,
2013-10-13 10:27:00,59.9,55.0,26.58,NNE,19,3.0,9.0,84,0.00,,,0.00,weatherlink.com 1.10,2013-10-13 14:27:00,
2013-10-13 10:42:00,60.4,55.0,26.58,NNW,348,8.0,11.0,83,0.00,,,0.00,weatherlink.com 1.10,2013-10-13 14:42:00,
2013-10-13 10:57:00,60.4,55.0,26.58,NNE,17,2.0,7.0,81,0.00,,,0.00,weatherlink.com 1.10,2013-10-13 14:57:00,
2013-10-13 11:12:00,60.4,56.0,26.58,North,351,0.0,5.0,84,0.00,,,0.00,weatherlink.com 1.10,2013-10-13 15:12:00,
2013-10-13 11:27:00,60.2,56.0,26.58,NNW,338,2.0,10.0,85,0.00,,,0.00,weatherlink.com 1.10,2013-10-13 15:27:00,
2013-10-13 11:42:00,60.4,56.0,26.59,NNE,32,0.0,4.0,86,0.00,,,0.00,weatherlink.com 1.10,2013-10-13 15:42:00,
2013-10-13 11:57:00,60.9,56.0,26.58,NNE,32,2.0,3.0,85,0.00,,,0.00,weatherlink.com 1.10,2013-10-13 15:57:00,
2013-10-13 12:12:00,60.7,56.0,26.59,NNE,23,1.0,5.0,84,0.00,,,0.00,weatherlink.com 1.10,2013-10-13 16:12:00,
2013-10-13 12:27:00,60.9,57.0,26.59,NNE,23,0.0,1.0,88,0.03,,,0.03,weatherlink.com 1.10,2013-10-13 16:27:00,
2013-10-13 12:42:00,60.5,58.0,26.59,NNE,23,1.0,3.0,91,0.04,,,0.04,weatherlink.com 1.10,2013-10-13 16:42:00,
2013-10-13 12:57:00,60.2,57.0,26.58,NNE,30,0.0,3.0,89,0.04,,,0.04,weatherlink.com 1.10,2013-10-13 16:57:00,
2013-10-13 13:12:00,60.4,57.0,26.58,NNE,28,0.0,4.0,88,0.04,,,0.04,weatherlink.com 1.10,2013-10-13 17:12:00,
2013-10-13 13:27:00,60.4,57.0,26.58,NNE,28,0.0,1.0,88,0.01,,,0.04,weatherlink.com 1.10,2013-10-13 17:27:00,
2013-10-13 13:42:00,60.7,57.0,26.57,NNE,28,0.0,0.0,87,0.00,,,0.04,weatherlink.com 1.10,2013-10-13 17:42:00,
2013-10-13 13:57:00,61.2,57.0,26.57,NNE,28,0.0,0.0,86,0.00,,,0.04,weatherlink.com 1.10,2013-10-13 17:57:00,
2013-10-13 14:12:00,62.0,59.0,26.56,NNE,28,0.0,3.0,88,0.00,,,0.04,weatherlink.com 1.10,2013-10-13 18:12:00,
2013-10-13 14:27:00,62.0,58.0,26.56,NNE,28,0.0,1.0,85,0.00,,,0.04,weatherlink.com 1.10,2013-10-13 18:27:00,
2013-10-13 14:42:00,62.7,58.0,26.56,NNE,28,1.0,1.0,84,0.00,,,0.04,weatherlink.com 1.10,2013-10-13 18:42:00,
2013-10-13 14:57:00,63.1,58.0,26.55,East,89,0.0,6.0,82,0.00,,,0.04,weatherlink.com 1.10,2013-10-13 18:57:00,
2013-10-13 15:12:00,63.2,57.0,26.55,East,95,1.0,8.0,81,0.00,,,0.04,weatherlink.com 1.10,2013-10-13 19:12:00,
2013-10-13 15:27:00,62.6,58.0,26.55,ENE,57,2.0,3.0,85,0.00,,,0.04,weatherlink.com 1.10,2013-10-13 19:27:00,
2013-10-13 15:42:00,61.8,58.0,26.56,NNE,17,0.0,5.0,86,0.06,,,0.10,weatherlink.com 1.10,2013-10-13 19:42:00,
2013-10-13 15:57:00,60.2,57.0,26.56,ESE,121,2.0,7.0,90,0.07,,,0.11,weatherlink.com 1.10,2013-10-13 19:57:00,
2013-10-13 16:12:00,59.5,57.0,26.56,ENE,63,0.0,4.0,91,0.07,,,0.11,weatherlink.com 1.10,2013-10-13 20:12:00,
2013-10-13 16:27:00,59.9,58.0,26.56,ENE,63,0.0,1.0,93,0.07,,,0.11,weatherlink.com 1.10,2013-10-13 20:27:00,
2013-10-13 16:42:00,59.8,58.0,26.56,ENE,63,0.0,2.0,93,0.01,,,0.11,weatherlink.com 1.10,2013-10-13 20:42:00,
2013-10-13 16:57:00,59.9,58.0,26.56,ENE,63,0.0,1.0,93,0.00,,,0.11,weatherlink.com 1.10,2013-10-13 20:57:00,
2013-10-13 17:13:00,59.9,58.0,26.56,ENE,63,0.0,3.0,93,0.00,,,0.11,weatherlink.com 1.10,2013-10-13 21:13:00,
2013-10-13 17:28:00,60.1,58.0,26.56,ENE,63,0.0,1.0,94,0.00,,,0.11,weatherlink.com 1.10,2013-10-13 21:28:00,
2013-10-13 17:43:00,60.1,58.0,26.56,ENE,63,0.0,1.0,94,0.00,,,0.11,weatherlink.com 1.10,2013-10-13 21:43:00,
2013-10-13 17:58:00,-999.0,-99.9,26.56,North,-999,-999.0,-999.0,-999,0.00,,,0.11,weatherlink.com 1.10,2013-10-13 21:58:00,
2013-10-13 18:13:00,-999.0,-99.9,26.57,North,-999,-999.0,-999.0,-999,0.00,,,0.11,weatherlink.com 1.10,2013-10-13 22:13:00,
2013-10-13 18:28:00,-999.0,-99.9,26.57,North,-999,-999.0,-999.0,-999,0.00,,,0.11,weatherlink.com 1.10,2013-10-13 22:28:00,
2013-10-13 18:43:00,-999.0,-99.9,26.57,North,-999,-999.0,-999.0,-999,0.00,,,0.11,weatherlink.com 1.10,2013-10-13 22:43:00,
2013-10-13 18:58:00,-999.0,-99.9,26.58,North,-999,-999.0,-999.0,-999,0.00,,,0.11,weatherlink.com 1.10,2013-10-13 22:58:00,
2013-10-13 19:13:00,-999.0,-99.9,26.58,North,-999,-999.0,-999.0,-999,0.00,,,0.11,weatherlink.com 1.10,2013-10-13 23:13:00,
2013-10-13 19:28:00,-999.0,-99.9,26.58,North,-999,-999.0,-999.0,-999,0.00,,,0.11,weatherlink.com 1.10,2013-10-13 23:28:00,
2013-10-13 19:43:00,-999.0,-99.9,26.58,North,-999,-999.0,-999.0,-999,0.00,,,0.11,weatherlink.com 1.10,2013-10-13 23:43:00,
2013-10-13 19:58:00,-999.0,-99.9,26.59,North,-999,-999.0,-999.0,-999,0.00,,,0.11,weatherlink.com 1.10,2013-10-13 23:58:00,
2013-10-13 20:13:00,-999.0,-99.9,26.59,North,-999,-999.0,-999.0,-999,0.00,,,0.11,weatherlink.com 1.10,2013-10-14 00:13:00,
2013-10-13 20:28:00,-999.0,-99.9,26.59,North,-999,-999.0,-999.0,-999,0.00,,,0.11,weatherlink.com 1.10,2013-10-14 00:28:00,
2013-10-13 20:43:00,-999.0,-99.9,26.59,North,-999,-999.0,-999.0,-999,0.00,,,0.11,weatherlink.com 1.10,2013-10-14 00:43:00,
2013-10-13 20:58:00,-999.0,-99.9,26.59,North,-999,-999.0,-999.0,-999,0.00,,,0.11,weatherlink.com 1.10,2013-10-14 00:58:00,
2013-10-13 21:13:00,-999.0,-99.9,26.60,North,-999,-999.0,-999.0,-999,0.00,,,0.11,weatherlink.com 1.10,2013-10-14 01:13:00,
2013-10-13 21:29:00,-999.0,-99.9,26.60,North,-999,-999.0,-999.0,-999,0.00,,,0.11,weatherlink.com 1.10,2013-10-14 01:29:00,
2013-10-13 21:44:00,-999.0,-99.9,26.60,North,-999,-999.0,-999.0,-999,0.00,,,0.11,weatherlink.com 1.10,2013-10-14 01:44:00,
2013-10-13 21:59:00,-999.0,-99.9,26.61,North,-999,-999.0,-999.0,-999,0.00,,,0.11,weatherlink.com 1.10,2013-10-14 01:59:00,
2013-10-13 22:14:00,-999.0,-99.9,26.61,North,-999,-999.0,-999.0,-999,0.00,,,0.11,weatherlink.com 1.10,2013-10-14 02:14:00,
2013-10-13 22:29:00,-999.0,-99.9,26.61,North,-999,-999.0,-999.0,-999,0.00,,,0.11,weatherlink.com 1.10,2013-10-14 02:29:00,
2013-10-13 22:44:00,-999.0,-99.9,26.60,North,-999,-999.0,-999.0,-999,0.00,,,0.11,weatherlink.com 1.10,2013-10-14 02:44:00,
2013-10-13 22:59:00,-999.0,-99.9,26.61,North,-999,-999.0,-999.0,-999,0.00,,,0.11,weatherlink.com 1.10,2013-10-14 02:59:00,
2013-10-13 23:14:00,-999.0,-99.9,26.61,North,-999,-999.0,-999.0,-999,0.00,,,0.11,weatherlink.com 1.10,2013-10-14 03:14:00,
2013-10-13 23:29:00,-999.0,-99.9,26.61,North,-999,-999.0,-999.0,-999,0.00,,,0.11,weatherlink.com 1.10,2013-10-14 03:29:00,
2013-10-13 23:44:00,-999.0,-99.9,26.60,North,-999,-999.0,-999.0,-999,0.00,,,0.11,weatherlink.com 1.10,2013-10-14 03:44:00,
2013-10-13 23:59:00,-999.0,-99.9,26.60,North,-999,-999.0,-999.0,-999,0.00,,,0.11,weatherlink.com 1.10,2013-10-14 03:59:00,